Flag Weather past 2 weeks in Freital, Saxony, Germany

Now
43 °F

Passing clouds.


Feels Like: 38 °F
Forecast: 35 / 48 °F
Wind: 7 mph from Southeast

Location: Dresden-Klotzsche

Current Time: Nov 23, 2014 at 12:13:57 PM

Latest Report: Nov 23, 2014 at 11:00 AM


Visibility: 8 mi

Pressure: 30.29 "Hg

Humidity: 78%

Dew point: 36 °F

Location of FreitalLocation

Historic Weather in Freital — Graph

°F

Freital temperature yesterday

Maximum temperature yesterday: 44 °F (at 1:00 PM)
Minimum temperature yesterday: 37 °F (at 7:00 AM)
Average temperature yesterday: 40 °F

Past Weeks' High & Low Weather Summary

 TemperatureHumidityPressure
High57 °F (Nov 12, 12:00 PM)100% (Nov 11, 6:00 AM)30.37 "Hg (Nov 11, 6:00 AM)
Low37 °F (Nov 22, 7:00 AM)60% (Nov 8, 12:00 PM)29.54 "Hg (Nov 16, 7:00 AM)
Average46 °F88%29.96 "Hg
* Reported Nov 8 11:00 AM — Nov 23 11:00 AM, Freital, Weather by CustomWeather, © 2014

Note: Actual official high and low records may vary slightly from our data, if they occured in-between our weather recording intervals... More about our weather records

Advertising

Freital weather history for previous 24 hours

 ConditionsComfort  
Time TempWeatherWind HumidityBarometerVisibility
11:00 AM
Nov 23
43 °FPassing clouds.7 mph78%30.29 "Hg8 mi
10:00 AM41 °FPassing clouds.7 mph81%30.29 "Hg8 mi
9:00 AM39 °FPassing clouds.8 mph85%30.29 "Hg8 mi
8:00 AM38 °FPassing clouds.7 mph87%30.28 "Hg9 mi
7:00 AM38 °FPassing clouds.7 mph85%30.26 "Hg9 mi
6:00 AM38 °FPassing clouds.7 mph86%30.26 "Hg9 mi
5:00 AM38 °FPassing clouds.6 mph85%30.26 "Hg10 mi
3:00 AM38 °FPassing clouds.6 mph85%30.26 "Hg8 mi
2:00 AM38 °FClear.6 mph84%30.26 "Hg8 mi
1:00 AM38 °FPassing clouds.6 mph84%30.27 "Hg9 mi
12:00 AM38 °FPassing clouds.6 mph85%30.27 "Hg11 mi
11:00 PM
Nov 22
38 °FPassing clouds.6 mph85%30.28 "Hg11 mi
9:00 PM39 °FPassing clouds.6 mph83%30.25 "Hg11 mi
8:00 PM39 °FPassing clouds.5 mph84%30.26 "Hg11 mi
7:00 PM38 °FPassing clouds.6 mph85%30.25 "Hg12 mi
6:00 PM39 °FPassing clouds.5 mph83%30.26 "Hg12 mi
5:00 PM39 °FPassing clouds.6 mph81%30.26 "Hg11 mi
4:00 PM41 °FOvercast.6 mph76%30.25 "Hg12 mi
3:00 PM42 °FPartly sunny.6 mph73%30.25 "Hg16 mi
2:00 PM43 °FPartly sunny.6 mph70%30.25 "Hg16 mi
1:00 PM44 °FPassing clouds.6 mph69%30.25 "Hg14 mi
12:00 PM43 °FScattered clouds.6 mph70%30.27 "Hg14 mi
Weather by CustomWeather, © 2014

See weather overviewHow to use our weather pages